User: anonymous   Login
Location: Lafig�re
(44.4503°N, 4.0357°E)
Time: 17:50:10
(UTC+00:00)
Language:

Meteor 2-19 Rocket - Orbit

View from above orbital plane
View from above orbital plane
View from above satellite
View from above satellite

Ground track
Ground track

The orbit data is extracted from the following two-line orbital elements,

1 20671U 90057B   20337.81946172  .00000032  00000-0  15713-4 0  9996
2 20671  82.5477  86.8730 0015346   9.6693 350.4760 13.84626862537797
Epoch (UTC): 02 December 2020 19:40:01
Eccentricity: 0.0015346
inclination: 82.5477°
perigee height: 936 km
apogee height: 959 km
right ascension of ascending node: 86.8730°
argument of perigee: 9.6693°
revolutions per day: 13.84626862
mean anomaly at epoch: 350.4760°
orbit number at epoch: 53779

The dashed part of the orbit path shows where the satellite is in the earth's shadow,  

DLR